Other Surface Observations
Issued by NWS Missoula, MT

Home | Current Version | Previous Version | Text Only | Print | Product List | Glossary On
Versions: 1 2 3 4 5 6 7 8 9 10 11 12 13 14 15 16 17 18 19 20 21 22 23 24 25 26 27 28 29 30 31 32 33 34 35 36 37 38 39 40 41 42 43 44 45 46 47 48 49 50
323
SXUS55 KMSO 122223
OSOMSO
MONTANA AWOS SUMMARY
NATIONAL WEATHER SERVICE MISSOULA MT
323 PM MST TUE DEC 12 2017

Montana AWOS Reports

ROUNDUP     |KRPX 122215Z AUTO 23012G20KT 40SM 16/M19 A2995 RMK AO1 T01611188




USA.gov is the U.S. government's official web portal to all federal, state and local government web resources and services.